Location: Lancaster
(34.6980°N, 118.1360°W)
Time: 10:26:46
(UTC-08:00)

N. Korean satellite - Pass Details

Date: 10 November 2017
Orbit: 460 x 514 km, 97.2° (Epoch: 22 November)

Event Time Altitude Azimuth Distance (km) Brightness Sun altitude
Rises 18:54:05 0° 207° (SSW) 2,470 10.6 -25.5°
Reaches altitude 10° 18:56:58 10° 235° (SW) 1,602 9.9 -26.1°
Maximum altitude 18:58:44 13° 266° (W) 1,407 9.8 -26.5°
Drops below altitude 10° 19:00:31 10° 297° (WNW) 1,613 9.9 -26.8°
Sets 19:03:27 0° 325° (NW) 2,500 10.6 -27.4°
